• In United Kingdom
  • List of Countries
  • For 7 days
  • Water Temperature
  • Satellite Maps
  • Weather Map
  • Weather Widgets
  • user-avatar
    Login

    Hourly Weather Shapchino

    Today, 16 July, Monday

    Time Temperature Precipitation Wind Pressure Humidity
    00:00 +20°C° 0.8 mm 3 mps 743 mmHg 88%
    01:00 +20°C° 0.6 mm 2 mps 743 mmHg 90%
    02:00 +19°C° 0.6 mm 2 mps 743 mmHg 92%
    03:00 +19°C° 0 mm 2 mps 743 mmHg 95%
    04:00 +19°C° 0.3 mm 2 mps 743 mmHg 94%
    05:00 +20°C° 0.3 mm 2 mps 743 mmHg 94%
    06:00 +20°C° 0.3 mm 3 mps 743 mmHg 93%
    07:00 +21°C° 0.1 mm 3 mps 743 mmHg 88%
    08:00 +24°C° 0.1 mm 3 mps 743 mmHg 83%
    09:00 +26°C° 0 mm 4 mps 743 mmHg 74%
    10:00 +27°C° 0.8 mm 4 mps 743 mmHg 69%
    11:00 +28°C° 0.8 mm 4 mps 743 mmHg 65%
    12:00 +29°C° 0.8 mm 4 mps 743 mmHg 60%
    13:00 +30°C° 0.3 mm 4 mps 742 mmHg 55%
    14:00 +32°C° 0.3 mm 4 mps 742 mmHg 53%
    15:00 +30°C° 0 mm 3 mps 743 mmHg 56%
    16:00 +30°C° 0.1 mm 3 mps 743 mmHg 58%
    17:00 +30°C° 0.1 mm 3 mps 742 mmHg 60%
    18:00 +29°C° 0.1 mm 3 mps 742 mmHg 62%
    19:00 +28°C° 0.2 mm 3 mps 742 mmHg 68%
    20:00 +26°C° 0.2 mm 3 mps 742 mmHg 73%
    21:00 +24°C° 0.2 mm 3 mps 742 mmHg 79%
    22:00 +22°C° 0.3 mm 3 mps 742 mmHg 83%
    23:00 +22°C° 0.3 mm 3 mps 742 mmHg 88%

    Tomorrow, 17 July, Tuesday

    Time Temperature Precipitation Wind Pressure Humidity
    00:00 +21°C° 0.3 mm 3 mps 742 mmHg 92%
    01:00 +20°C° 0 mm 3 mps 742 mmHg 93%
    02:00 +20°C° 0 mm 3 mps 742 mmHg 95%
    03:00 +20°C° 0 mm 3 mps 741 mmHg 96%
    04:00 +20°C° 0 mm 3 mps 741 mmHg 95%
    05:00 +20°C° 0 mm 4 mps 741 mmHg 94%
    06:00 +20°C° 0 mm 4 mps 741 mmHg 94%
    07:00 +22°C° 0 mm 5 mps 741 mmHg 87%
    08:00 +23°C° 0 mm 5 mps 741 mmHg 81%
    09:00 +26°C° 0 mm 5 mps 741 mmHg 74%
    10:00 +27°C° 0.2 mm 5 mps 740 mmHg 71%
    11:00 +28°C° 0.2 mm 6 mps 740 mmHg 69%
    12:00 +29°C° 0.2 mm 6 mps 740 mmHg 66%
    13:00 +28°C° 0.9 mm 6 mps 740 mmHg 70%
    14:00 +28°C° 0.9 mm 5 mps 739 mmHg 73%
    15:00 +28°C° 0.9 mm 5 mps 739 mmHg 77%
    16:00 +27°C° 0.7 mm 5 mps 739 mmHg 78%
    17:00 +27°C° 0.7 mm 5 mps 739 mmHg 80%
    18:00 +26°C° 0.7 mm 4 mps 739 mmHg 81%
    19:00 +25°C° 0.2 mm 4 mps 739 mmHg 85%
    20:00 +23°C° 0.2 mm 4 mps 739 mmHg 89%
    21:00 +22°C° 0.2 mm 3 mps 739 mmHg 92%
    22:00 +22°C° 0 mm 3 mps 739 mmHg 93%
    23:00 +21°C° 0 mm 4 mps 739 mmHg 94%

    Day after tomorrow, 18 July, Wednesday

    Time Temperature Precipitation Wind Pressure Humidity
    00:00 +21°C° 0 mm 4 mps 738 mmHg 95%
    01:00 +20°C° 0 mm 4 mps 738 mmHg 95%
    02:00 +20°C° 0 mm 4 mps 738 mmHg 96%
    03:00 +20°C° 0 mm 4 mps 738 mmHg 96%
    04:00 +20°C° 0.1 mm 5 mps 738 mmHg 95%
    05:00 +20°C° 0.1 mm 5 mps 738 mmHg 94%
    06:00 +20°C° 0.1 mm 5 mps 737 mmHg 93%
    07:00 +20°C° 0.4 mm 6 mps 737 mmHg 92%
    08:00 +20°C° 0.4 mm 6 mps 737 mmHg 91%
    09:00 +20°C° 0.4 mm 6 mps 737 mmHg 91%
    10:00 +21°C° 0.2 mm 6 mps 737 mmHg 90%
    11:00 +21°C° 0.2 mm 6 mps 737 mmHg 89%
    12:00 +21°C° 0.2 mm 6 mps 737 mmHg 88%
    13:00 +22°C° 0.4 mm 6 mps 737 mmHg 85%
    14:00 +22°C° 0.4 mm 6 mps 737 mmHg 83%
    15:00 +23°C° 0.4 mm 6 mps 736 mmHg 80%
    16:00 +23°C° 0.5 mm 6 mps 736 mmHg 82%
    17:00 +22°C° 0.5 mm 6 mps 736 mmHg 83%
    18:00 +22°C° 0.5 mm 6 mps 736 mmHg 85%
    19:00 +21°C° 0.2 mm 5 mps 736 mmHg 87%
    20:00 +21°C° 0.2 mm 5 mps 736 mmHg 89%
    21:00 +20°C° 0.2 mm 5 mps 736 mmHg 91%
    22:00 +19°C° 0 mm 4 mps 736 mmHg 92%
    23:00 +19°C° 0 mm 4 mps 736 mmHg 93%

    19 July, Thursday

    Time Temperature Precipitation Wind Pressure Humidity
    00:00 +18°C° 0 mm 4 mps 736 mmHg 94%
    01:00 +18°C° 0.2 mm 4 mps 736 mmHg 94%
    02:00 +18°C° 0.2 mm 4 mps 736 mmHg 94%
    03:00 +18°C° 0.2 mm 4 mps 736 mmHg 95%
    04:00 +18°C° 1.2 mm 4 mps 736 mmHg 95%
    05:00 +18°C° 1.2 mm 4 mps 736 mmHg 96%
    06:00 +18°C° 1.2 mm 4 mps 736 mmHg 96%
    07:00 +19°C° 1.6 mm 4 mps 736 mmHg 96%
    08:00 +19°C° 1.6 mm 4 mps 737 mmHg 96%
    09:00 +19°C° 1.6 mm 4 mps 737 mmHg 96%
    10:00 +20°C° 0.6 mm 4 mps 737 mmHg 94%
    11:00 +21°C° 0.6 mm 4 mps 737 mmHg 92%
    12:00 +21°C° 0.6 mm 4 mps 737 mmHg 91%
    13:00 +22°C° 1.4 mm 3 mps 737 mmHg 88%
    14:00 +24°C° 1.4 mm 3 mps 738 mmHg 85%
    15:00 +25°C° 1.4 mm 3 mps 738 mmHg 82%
    16:00 +25°C° 0.8 mm 3 mps 738 mmHg 83%
    17:00 +25°C° 0.8 mm 3 mps 738 mmHg 84%
    18:00 +25°C° 0.8 mm 3 mps 738 mmHg 84%
    19:00 +24°C° 0.2 mm 3 mps 738 mmHg 88%
    20:00 +22°C° 0.2 mm 3 mps 738 mmHg 92%
    21:00 +21°C° 0.2 mm 2 mps 738 mmHg 95%
    22:00 +20°C° 0 mm 2 mps 738 mmHg 96%
    23:00 +20°C° 0 mm 2 mps 739 mmHg 96%

    20 July, Friday

    Time Temperature Precipitation Wind Pressure Humidity
    00:00 +19°C° 0 mm 2 mps 739 mmHg 97%
    01:00 +19°C° 0 mm 2 mps 739 mmHg 97%
    02:00 +19°C° 0 mm 2 mps 739 mmHg 98%
    03:00 +19°C° 0 mm 2 mps 739 mmHg 98%
    04:00 +19°C° 0.3 mm 3 mps 739 mmHg 97%
    05:00 +19°C° 0.3 mm 3 mps 739 mmHg 97%
    06:00 +19°C° 0.3 mm 3 mps 740 mmHg 97%
    07:00 +20°C° 0 mm 3 mps 740 mmHg 94%
    08:00 +21°C° 0 mm 4 mps 740 mmHg 91%
    09:00 +22°C° 0 mm 4 mps 740 mmHg 88%
    10:00 +23°C° 0.5 mm 4 mps 740 mmHg 84%
    11:00 +25°C° 0.5 mm 4 mps 740 mmHg 81%
    12:00 +26°C° 0.5 mm 4 mps 740 mmHg 78%
    13:00 +26°C° 1.4 mm 3 mps 740 mmHg 78%
    14:00 +27°C° 1.4 mm 3 mps 740 mmHg 79%
    15:00 +27°C° 1.4 mm 3 mps 740 mmHg 79%
    16:00 +26°C° 1.2 mm 3 mps 739 mmHg 81%
    17:00 +26°C° 1.2 mm 3 mps 739 mmHg 82%
    18:00 +26°C° 1.2 mm 3 mps 739 mmHg 84%
    19:00 +25°C° 0.1 mm 3 mps 739 mmHg 87%
    20:00 +24°C° 0.1 mm 2 mps 739 mmHg 90%
    21:00 +21°C° 0.1 mm 2 mps 739 mmHg 93%
    22:00 +21°C° 0.1 mm 2 mps 739 mmHg 94%
    23:00 +21°C° 0.1 mm 2 mps 739 mmHg 95%

    21 July, Saturday

    Time Temperature Precipitation Wind Pressure Humidity
    00:00 +20°C° 0.1 mm 2 mps 739 mmHg 96%
    01:00 +20°C° 0 mm 2 mps 739 mmHg 96%
    02:00 +20°C° 0 mm 2 mps 739 mmHg 97%
    03:00 +19°C° 0 mm 2 mps 739 mmHg 97%
    04:00 +20°C° 0 mm 2 mps 739 mmHg 96%
    05:00 +20°C° 0 mm 2 mps 740 mmHg 96%
    06:00 +20°C° 0 mm 2 mps 740 mmHg 95%
    07:00 +23°C° 0.3 mm 2 mps 740 mmHg 91%
    08:00 +24°C° 0.3 mm 3 mps 740 mmHg 87%
    09:00 +25°C° 0.3 mm 3 mps 740 mmHg 82%
    10:00 +27°C° 0.5 mm 4 mps 740 mmHg 77%
    11:00 +28°C° 0.5 mm 4 mps 740 mmHg 72%
    12:00 +29°C° 0.5 mm 4 mps 740 mmHg 67%
    13:00 +29°C° 0.4 mm 4 mps 740 mmHg 65%
    14:00 +29°C° 0.4 mm 4 mps 740 mmHg 64%
    15:00 +30°C° 0.4 mm 4 mps 740 mmHg 62%
    16:00 +29°C° 0.8 mm 4 mps 740 mmHg 67%
    17:00 +28°C° 0.8 mm 3 mps 740 mmHg 72%
    18:00 +28°C° 0.8 mm 3 mps 740 mmHg 77%
    19:00 +26°C° 0.7 mm 3 mps 740 mmHg 81%
    20:00 +25°C° 0.7 mm 2 mps 740 mmHg 86%
    21:00 +24°C° 0.7 mm 2 mps 740 mmHg 90%
    22:00 +23°C° 0.1 mm 2 mps 740 mmHg 92%
    23:00 +23°C° 0.1 mm 2 mps 740 mmHg 93%
    Show more